Alpine, TX

9:43 PM CDT on August 16, 2017 (GMT -0500)
Alpine

Weather History for KE38 - January, 2012

Change the Weather History Date:

Sunday, January 22, 2012

  Actual Average (KMRF) Record (KMRF)
Temperature  
Mean Temperature 54 °F -  
Max Temperature 59 °F 58 °F 69 °F (2009)
Min Temperature 46 °F 27 °F 15 °F (2011)
Degree Days  
Heating Degree Days 12    
Growing Degree Days 4 (Base 50)    
Moisture  
Dew Point 2 °F    
Average Humidity 12    
Maximum Humidity 17    
Minimum Humidity 9    
Precipitation  
Precipitation 0.00 in - - ()
Sea Level Pressure  
Sea Level Pressure 29.98 in    
Wind  
Wind Speed 20 mph (WSW)    
Max Wind Speed 51 mph    
Max Gust Speed 61 mph    
Visibility 10 miles    
Events      
Averages and records for this station are not official NWS values.
T = Trace of Precipitation, MM = Missing Value Source: NWS Daily Summary

Daily Weather History Graph

Daily Weather History Graph

Search for Another Location

Airport or City:

Trip Planner

Search our weather history database for the weather conditions in past years. The results will help you decide how hot, cold, wet, or windy it might be!

Date:

Astronomy

Jan. 22, 2012 Rise Set
Actual Time 7:50 AM CST 6:22 PM CST
Civil Twilight 7:24 AM CST 6:47 PM CST
Nautical Twilight 6:55 AM CST 7:17 PM CST
Astronomical Twilight 6:26 AM CST 7:45 PM CST
Moon 7:09 AM CST (1/22) 6:05 PM CST (1/22)
Length of Visible Light 11h 22m
Length of Day
10h 31m
Waning Crescent, 0% of the Moon is Illuminated
Jan 22
Waning Crescent
Jan 23
New
Jan 30
First Quarter
Feb 7
Full
Feb 14
Last Quarter

Hourly Weather History & Observations

Time (CST) Temp. Dew Point Humidity Pressure Visibility Wind Dir Wind Speed Gust Speed Precip Events Conditions
12:15 AM 54.9 °F 1.4 °F 11% 29.92 in 10.0 mi SW 12.7 mph - N/A   Clear
12:35 AM 55.0 °F 0.3 °F 11% 29.92 in 10.0 mi SW 16.1 mph - N/A   Clear
12:55 AM 55.0 °F 0.1 °F 11% 29.92 in 10.0 mi SW 15.0 mph 23.0 mph N/A   Clear
1:15 AM 54.9 °F 0.7 °F 11% 29.92 in 10.0 mi SW 11.5 mph - N/A   Clear
1:35 AM 54.0 °F 1.0 °F 12% 29.93 in 10.0 mi WSW 10.4 mph - N/A   Clear
1:55 AM 53.1 °F 1.2 °F 12% 29.92 in 10.0 mi SW 12.7 mph - N/A   Clear
2:15 AM 54.0 °F 2.7 °F 12% 29.91 in 10.0 mi WSW 15.0 mph - N/A   Clear
2:35 AM 54.7 °F 3.9 °F 13% 29.92 in 10.0 mi WSW 11.5 mph 19.6 mph N/A   Clear
2:55 AM 53.1 °F 3.7 °F 14% 29.90 in 10.0 mi SW 13.8 mph 20.7 mph N/A   Clear
3:15 AM 52.5 °F 4.3 °F 14% 29.89 in 10.0 mi SW 15.0 mph - N/A   Clear
3:35 AM 52.7 °F 4.3 °F 14% 29.88 in 10.0 mi SW 17.3 mph 23.0 mph N/A   Clear
3:55 AM 52.7 °F 4.3 °F 14% 29.88 in 10.0 mi SW 13.8 mph 24.2 mph N/A   Clear
4:15 AM 52.2 °F 3.6 °F 14% 29.87 in 10.0 mi SW 20.7 mph 24.2 mph N/A   Clear
4:35 AM 52.3 °F 3.7 °F 14% 29.88 in 10.0 mi SW 16.1 mph - N/A   Clear
4:55 AM 52.3 °F 4.8 °F 15% 29.88 in 10.0 mi WSW 13.8 mph - N/A   Clear
5:15 AM 50.2 °F 4.5 °F 16% 29.87 in 10.0 mi SW 19.6 mph - N/A   Clear
5:55 AM 52.7 °F 6.8 °F 16% 29.85 in 10.0 mi WSW 28.8 mph 35.7 mph N/A   Clear
6:15 AM 52.7 °F 6.3 °F 15% 29.88 in 10.0 mi WSW 23.0 mph 35.7 mph N/A   Clear
6:35 AM 52.7 °F 5.9 °F 15% 29.89 in 10.0 mi West 20.7 mph 31.1 mph N/A   Clear
6:55 AM 53.2 °F 4.3 °F 14% 29.89 in 10.0 mi WSW 26.5 mph 35.7 mph N/A   Clear
7:15 AM 54.9 °F 3.2 °F 12% 29.88 in 10.0 mi WSW 34.5 mph 40.3 mph N/A   Clear
7:35 AM 54.9 °F 2.3 °F 12% 29.89 in 10.0 mi WSW 34.5 mph 42.6 mph N/A   Clear
7:55 AM 54.9 °F 1.8 °F 12% 29.90 in 10.0 mi West 32.2 mph 47.2 mph N/A   Clear
8:15 AM 54.3 °F 1.8 °F 12% 29.93 in 10.0 mi West 26.5 mph 38.0 mph N/A   Clear
8:55 AM 54.9 °F -0.2 °F 11% 29.94 in 10.0 mi West 33.4 mph 47.2 mph N/A   Clear
9:15 AM 54.9 °F -0.4 °F 11% 29.94 in 10.0 mi West 33.4 mph 47.2 mph N/A   Clear
9:35 AM 54.9 °F -1.3 °F 10% 29.94 in 10.0 mi West 42.6 mph 52.9 mph N/A   Clear
9:55 AM 55.2 °F -1.8 °F 10% 29.96 in 10.0 mi West 39.1 mph 49.5 mph N/A   Clear
10:15 AM 56.5 °F -1.7 °F 9% 29.96 in 10.0 mi WSW 35.7 mph 49.5 mph N/A   Clear
10:35 AM 56.5 °F -2.0 °F 9% 29.97 in 10.0 mi WSW 40.3 mph 55.2 mph N/A   Clear
10:55 AM 56.1 °F -2.0 °F 9% 29.96 in 10.0 mi West 48.3 mph 56.4 mph N/A   Clear
11:15 AM 55.8 °F -2.2 °F 9% 29.95 in 7.0 mi WSW 50.6 mph 61.0 mph N/A   Clear
11:35 AM 56.1 °F -3.3 °F 9% 29.96 in 7.0 mi West 41.4 mph 56.4 mph N/A   Clear
12:15 PM 56.7 °F 0.1 °F 10% 30.02 in 10.0 mi West 26.5 mph 32.2 mph N/A   Clear
12:35 PM 57.6 °F 1.0 °F 10% 30.02 in 10.0 mi West 24.2 mph 35.7 mph N/A   Clear
12:55 PM 57.7 °F -0.8 °F 9% 30.02 in 10.0 mi West 28.8 mph 39.1 mph N/A   Clear
1:15 PM 57.6 °F -0.8 °F 9% 30.00 in 10.0 mi West 32.2 mph 40.3 mph N/A   Clear
1:35 PM 58.3 °F 1.2 °F 10% 30.00 in 10.0 mi West 28.8 mph 36.8 mph N/A   Clear
1:55 PM 58.5 °F 1.9 °F 10% 30.01 in 10.0 mi West 19.6 mph 35.7 mph N/A   Clear
2:15 PM 57.9 °F 1.9 °F 10% 30.00 in 10.0 mi West 24.2 mph 32.2 mph N/A   Clear
2:35 PM 58.1 °F 2.3 °F 11% 30.01 in 10.0 mi West 24.2 mph 27.6 mph N/A   Clear
2:55 PM 58.5 °F 2.8 °F 11% 30.00 in 10.0 mi West 15.0 mph 28.8 mph N/A   Clear
3:15 PM 58.5 °F 3.0 °F 11% 30.02 in 10.0 mi West 12.7 mph 21.9 mph N/A   Clear
3:35 PM 59.5 °F 3.7 °F 11% 30.02 in 10.0 mi West 16.1 mph 20.7 mph N/A   Clear
3:55 PM 59.9 °F 3.2 °F 10% 30.01 in 10.0 mi West 18.4 mph 24.2 mph N/A   Clear
4:15 PM 59.9 °F 3.0 °F 10% 30.01 in 10.0 mi West 21.9 mph 28.8 mph N/A   Clear
4:35 PM 59.4 °F 0.5 °F 9% 30.01 in 10.0 mi West 20.7 mph 29.9 mph N/A   Clear
4:55 PM 58.5 °F -0.6 °F 9% 30.02 in 10.0 mi West 20.7 mph 27.6 mph N/A   Clear
5:15 PM 58.1 °F -0.6 °F 9% 30.03 in 10.0 mi West 16.1 mph 24.2 mph N/A   Clear
5:35 PM 57.4 °F -0.6 °F 10% 30.05 in 10.0 mi West 10.4 mph - N/A   Clear
5:55 PM 56.5 °F -1.3 °F 10% 30.06 in 10.0 mi WSW 17.3 mph 23.0 mph N/A   Clear
6:15 PM 55.0 °F -2.4 °F 10% 30.06 in 10.0 mi WSW 16.1 mph - N/A   Clear
6:35 PM 53.4 °F -2.0 °F 10% 30.05 in 10.0 mi WSW 16.1 mph - N/A   Clear
6:55 PM 52.7 °F -1.3 °F 11% 30.07 in 10.0 mi WSW 12.7 mph - N/A   Clear
7:15 PM 52.7 °F -1.1 °F 11% 30.08 in 10.0 mi WSW 18.4 mph - N/A   Clear
7:35 PM 52.5 °F 0.7 °F 12% 30.08 in 10.0 mi WSW 18.4 mph - N/A   Clear
7:55 PM 51.6 °F 1.4 °F 13% 30.08 in 10.0 mi WSW 18.4 mph - N/A   Clear
8:15 PM 51.8 °F 1.8 °F 13% 30.08 in 10.0 mi WSW 17.3 mph - N/A   Clear
8:35 PM 51.4 °F 1.6 °F 13% 30.09 in 10.0 mi WSW 18.4 mph - N/A   Clear
8:55 PM 50.4 °F 1.4 °F 13% 30.10 in 10.0 mi WSW 13.8 mph - N/A   Clear
9:15 PM 50.0 °F 1.9 °F 14% 30.10 in 10.0 mi WSW 15.0 mph - N/A   Clear
9:35 PM 50.0 °F 2.8 °F 15% 30.10 in 10.0 mi WSW 16.1 mph - N/A   Clear
9:55 PM 50.0 °F 3.7 °F 15% 30.10 in 10.0 mi WSW 13.8 mph - N/A   Clear
10:15 PM 49.6 °F 4.3 °F 16% 30.10 in 10.0 mi WSW 12.7 mph - N/A   Clear
10:35 PM 48.2 °F 4.3 °F 17% 30.11 in 10.0 mi WSW 13.8 mph - N/A   Clear
11:15 PM 48.4 °F 5.0 °F 17% 30.11 in 10.0 mi Calm Calm - N/A   Clear
11:35 PM 46.6 °F 3.9 °F 17% 30.12 in 10.0 mi WNW 5.8 mph - N/A   Clear
11:55 PM 47.1 °F 4.1 °F 17% 30.12 in 10.0 mi WSW 6.9 mph - N/A   Clear